This is the latest recevied weather packets stored in our database for station/object OK1LPD-6. If no packets are shown the sender has not sent any weather packets the latest 1 day(s).
| Time | Temp. | Humidity | Pressure | Rain* | Wind** | Luminosity | Snow |
|---|---|---|---|---|---|---|---|
| 1778070930 | 22.78° C | 41% | 1005.6 hPa | 0 mm | - | - | - |
| 1778070330 | 23.89° C | 41% | 1005.8 hPa | 0 mm | - | - | - |
| 1778066730 | 23.33° C | 43% | 1006.2 hPa | 0 mm | - | - | - |
| 1778065530 | 23.33° C | 45% | 1006.5 hPa | 0 mm | - | - | - |
| 1778064931 | 23.33° C | 45% | 1006.5 hPa | 0 mm | - | - | - |
| 1778063731 | 22.22° C | 50% | 1006.7 hPa | 0 mm | - | - | - |
| 1778063131 | 22.22° C | 50% | 1006.9 hPa | 0 mm | - | - | - |
| 1778061932 | 21.11° C | 51% | 1006.9 hPa | 0 mm | - | - | - |
| 1778061331 | 21.11° C | 51% | 1007 hPa | 0 mm | - | - | - |
| 1778060750 | 21.11° C | 50% | 1007 hPa | 0 mm | - | - | - |
| 1778059531 | 20.56° C | 53% | 1007 hPa | 0 mm | - | - | - |
| 1778056532 | 18.89° C | 60% | 1007.2 hPa | 0 mm | - | - | - |
| 1778055354 | 19.44° C | 60% | 1007.1 hPa | 0 mm | - | - | - |
| 1778054733 | 18.33° C | 61% | 1007.2 hPa | 0 mm | - | - | - |
| 1778054132 | 18.89° C | 62% | 1007.2 hPa | 0 mm | - | - | - |
| 1778053552 | 19.44° C | 63% | 1007 hPa | 0 mm | - | - | - |
| 1778052332 | 17.78° C | 69% | 1007 hPa | 0 mm | - | - | - |
| 1778051752 | 17.78° C | 68% | 1007.2 hPa | 0 mm | - | - | - |
| 1778050533 | 17.78° C | 70% | 1006.9 hPa | 0 mm | - | - | - |
| 1778049945 | 17.78° C | 70% | 1007 hPa | 0 mm | - | - | - |
| 1778048146 | 17.22° C | 75% | 1007 hPa | 0 mm | - | - | - |
| 1778046933 | 16.11° C | 80% | 1006.7 hPa | 0 mm | - | - | - |
| 1778043933 | 16.11° C | 81% | 1007.1 hPa | 0 mm | - | - | - |
| 1778043334 | 15.56° C | 84% | 1007 hPa | 0 mm | - | - | - |
| 1778042134 | 14.44° C | 93% | 1006.8 hPa | 0 mm | - | - | - |
* Rain latest hour (hover to see other rain measurements)
** Current wind speed in m/s (hover to see current wind gust speed)